Location: ??????
(55.7522°N, 37.6156°E)
Time: 08:54:59
(UTC+00:00)

USA 229 DEB - Pass Details

Date: 17 December 2025
Orbit: 844 x 1364 km, 63.4° (Epoch: 10 January)

Event Time Altitude Azimuth Distance (km) Brightness Sun altitude
Exits shadow 00:10:06 29° 66° (ENE) 2,020 5.4 -45.8°
Drops below altitude 10° 00:14:01 10° 83° (E) 3,212 6.7 -45.3°
Sets 00:17:06 0° 89° (E) 4,245 7.5 -44.9°
